METEOR 2-17 DEB, 38542

Orbit data source: Space-Track

METEOR 2-17 DEB, 38542 is space debris in LEO originally from a launch on Sat, 30 Jan 1988 UTC launched from the Plesetsk Missile And Space Complex (PKMTR). Debris objects in space refer to the collection of defunct objects orbiting the Earth. Examples of debris include non-operational satellites, rocket bodies, and fragments generated from explosions, collisions, or faulty payload assembly.

Loading next visibility...
Identifier
38542, 1988-005AV
Orbit
LEO
Country
Flag of CISCIS
Related business
Manufacturer
Unknown
Mission
Spacecraft
Bus & Motor
Unknown
Mass
Unknown
Launch date (UTC)
1988-01-30 (38 years ago)
Launch vehicle
Unknown
Launch site
Plesetsk Missile And Space Complex (PKMTR)
Object type
Payload
Rocket body
Debris
Shape & HBR
Unknown shape, 0.1 m
Radar Cross Section
Small (<0.1 m²)

Expand to show TLE details & history
Last TLE update: 3 days ago

TLE from 3 days ago
0 METEOR 2-17 DEB
1 38542U 88005AV  25349.91351655  .00001782  00000-0  11772-2 0  9999
2 38542  82.5270  52.1190 0025635  85.7958 274.6140 14.00991637578665
Epoch: 2025-12-15T21:55Z
TLE epoch observation values (Epoch: 2025-12-15T21:55:27.829Z)
Latitude
-0.00009°
Longitude
-1.55222°
Altitude
891.837 km
Speed
7.407 km/s
True Right ascension
03h 28m 28s
True Declination
0° 00' 00"
Sunlit
Object was in full shadow at epoch
Visualization orbit readout
Latitude
Unknown
Longitude
Unknown
Altitude
Unknown
Speed
Unknown
Apparent Right ascension
Unknown
Apparent Declination
Unknown
Sunlit
N/A
Visualization observer readout
Local Sidereal Time
20:39:34
Azimuth
Unknown
Elevation
Unknown
Doppler factor
Unknown
Orbital elements
Apogee altitude
906.118 km
Perigee altitude
868.867 km
Semi-major axis
7,265.63 km
Eccentricity
0.00256
Inclination
82.527°
RAAN
52.119°
Arg. of periapsis
85.7958°
True anomaly
274.32112°
Mean anomaly
274.614°
Eccentric anomaly
274.46757°
Mean motion
3.50456 °/min
Orbital period
102.72 mins
BSTAR
0.0011772
Loading maneuver chart data...
Computing Atmospheric mass density...
Loading historical data...
Loading historical data...
Loading historical data...
Loading historical data...
Loading historical data...
Loading historical data...
Loading historical data...

Documentation

Showing up to 5 results
|